{"data":{"norad_id":67669,"intl_designator":"2026-022X","name":"STARLINK-36639","alt_names":[],"object_type":"PAYLOAD","status":"ACTIVE","operator":null,"country":"US","launch_date":"2026-02-02","launch_site_code":"AFWTR","launch_vehicle":null,"mission":null,"orbit_class":"UNKNOWN","rcs_meters":null,"size_class":null,"mass_kg":null,"dimensions":null,"purposes":["comms"],"wikipedia_slug":null,"has_3d_model":false,"image_url":null,"decayed_at":null,"tle_current":{"epoch":"2026-05-25T02:25:15.316608Z","epoch_age_seconds":60173,"freshness":"FRESH","line1":"1 67669U 26022X   26145.10087172  .00021576  00000+0  66862-3 0  9991","line2":"2 67669  97.2853 178.3698 0000104  65.2654 294.8599 15.33451061 17288","mean_motion":15.33451061,"eccentricity":1.04e-5,"inclination_deg":97.2853,"raan_deg":178.3698,"arg_perigee_deg":65.2654,"mean_anomaly_deg":294.8599,"bstar":0.00066862,"rev_number":1728,"period_min":93.905833490437,"perigee_km":465.45396717954,"apogee_km":465.59631535207,"semimajor_km":6843.6621412658,"source":"CELESTRAK","updated_at":"2026-05-25T13:38:21.661322Z"}}}